FWV2521 LGSK-LDDU

Flight info

Callsign FWV2521
Flight time N/A
Altitude 36000
Route IBIDI UL617 TSL UN130 TALAS DCT MAVAR DCT RETRA DCT MOKUN
Aircraft A320/M-SDE3FGHIRWY/LB1

Departure

Time 2026-05-06 18:57
Airport Skiathos Island National Airport (LGSK)

Arrival

Time N/A
Airport Dubrovnik Ruđer Bošković Airport (LDDU)
Time Latitude Longitude Altitude Speed Heading
2026-05-06 18:38 39.17989 23.50272 41 ft 0 kts 289°
2026-05-06 18:51 39.17988 23.50276 39 ft 3 kts 289°
2026-05-06 18:51 39.17979 23.50309 39 ft 4 kts 289°
2026-05-06 18:51 39.17972 23.50336 38 ft 4 kts 304°
2026-05-06 18:51 39.17953 23.50357 39 ft 4 kts 345°
2026-05-06 18:52 39.17935 23.50360 41 ft 1 kts
2026-05-06 18:52 39.17932 23.50360 41 ft 1 kts
2026-05-06 18:54 39.17933 23.50361 41 ft 0 kts
2026-05-06 18:54 39.17934 23.50364 38 ft 0 kts 37°
2026-05-06 18:54 39.17935 23.50377 40 ft 9 kts 82°
2026-05-06 18:55 39.17967 23.50478 45 ft 12 kts 32°
2026-05-06 18:55 39.18059 23.50524 48 ft 15 kts 19°
2026-05-06 18:55 39.18146 23.50563 49 ft 14 kts 19°
2026-05-06 18:55 39.18218 23.50596 55 ft 8 kts 19°
2026-05-06 18:56 39.18283 23.50625 56 ft 14 kts 19°
2026-05-06 18:56 39.18369 23.50662 58 ft 11 kts 30°
2026-05-06 18:56 39.18401 23.50689 55 ft 2 kts 301°
2026-05-06 18:56 39.18390 23.50652 55 ft 11 kts 225°
2026-05-06 18:57 39.18309 23.50633 54 ft 14 kts 201°
2026-05-06 18:57 39.18005 23.50498 45 ft 88 kts 199°
2026-05-06 18:57 39.17181 23.50129 36 ft 158 kts 200°
2026-05-06 18:57 39.16089 23.49722 680 ft 167 kts 194°
2026-05-06 18:58 39.14942 23.49361 1497 ft 169 kts 195°
2026-05-06 18:58 39.13846 23.48915 2337 ft 162 kts 197°
2026-05-06 18:58 39.12726 23.48431 2712 ft 178 kts 199°
2026-05-06 18:58 39.11499 23.47843 2978 ft 198 kts 200°
2026-05-06 18:59 39.10189 23.47200 3480 ft 203 kts 201°
2026-05-06 18:59 39.08852 23.46554 4030 ft 207 kts 201°
2026-05-06 18:59 39.07471 23.46020 4568 ft 211 kts 185°
2026-05-06 18:59 39.06046 23.46395 5075 ft 218 kts 151°
2026-05-06 19:00 39.05011 23.47819 5584 ft 224 kts 114°
2026-05-06 19:00 39.04760 23.49795 6122 ft 228 kts 89°
2026-05-06 19:00 39.04788 23.51841 6794 ft 229 kts 88°
2026-05-06 19:00 39.04811 23.53223 7243 ft 230 kts 88°
2026-05-06 19:01 39.04857 23.55962 8119 ft 232 kts 88°
2026-05-06 19:01 39.04890 23.58078 8790 ft 235 kts 88°
2026-05-06 19:01 39.04920 23.60181 9457 ft 237 kts 88°
2026-05-06 19:01 39.04948 23.62318 10084 ft 241 kts 88°
2026-05-06 19:02 39.05142 23.64463 10664 ft 242 kts 68°
2026-05-06 19:02 39.06017 23.66284 11238 ft 241 kts 41°
2026-05-06 19:02 39.06911 23.67127 11613 ft 243 kts 25°
2026-05-06 19:02 39.08594 23.67670 11815 ft 261 kts 356°
2026-05-06 19:03 39.10405 23.67082 12028 ft 281 kts 336°
2026-05-06 19:03 39.12247 23.66078 12478 ft 292 kts 336°
2026-05-06 19:03 39.14131 23.65046 13149 ft 296 kts 336°
2026-05-06 19:03 39.16037 23.64010 13860 ft 299 kts 336°
2026-05-06 19:04 39.17962 23.62973 14501 ft 301 kts 336°
2026-05-06 19:04 39.19898 23.61935 15155 ft 302 kts 336°
2026-05-06 19:04 39.21844 23.60893 15790 ft 304 kts 336°
2026-05-06 19:04 39.23800 23.59843 16424 ft 305 kts 336°
2026-05-06 19:05 39.25759 23.58790 17068 ft 307 kts 336°
2026-05-06 19:05 39.27732 23.57727 17701 ft 308 kts 336°
2026-05-06 19:05 39.29720 23.56654 18329 ft 310 kts 336°
2026-05-06 19:05 39.31711 23.55581 18865 ft 312 kts 335°
2026-05-06 19:06 39.33724 23.54494 19399 ft 314 kts 335°
2026-05-06 19:06 39.35743 23.53405 19910 ft 316 kts 335°
2026-05-06 19:06 39.37775 23.52311 20448 ft 318 kts 336°
2026-05-06 19:06 39.39821 23.51211 20950 ft 320 kts 336°
2026-05-06 19:07 39.41881 23.50104 21456 ft 322 kts 336°
2026-05-06 19:07 39.44006 23.49008 21614 ft 336 kts 337°
2026-05-06 19:07 39.46234 23.47919 21753 ft 349 kts 338°
2026-05-06 19:07 39.48552 23.46818 21886 ft 361 kts 338°
2026-05-06 19:08 39.50949 23.45682 22017 ft 373 kts 338°
2026-05-06 19:08 39.53419 23.44504 22154 ft 384 kts 338°
2026-05-06 19:08 39.55954 23.43288 22420 ft 390 kts 338°
2026-05-06 19:08 39.58509 23.42059 22808 ft 393 kts 338°
2026-05-06 19:09 39.61082 23.40814 23180 ft 397 kts 338°
2026-05-06 19:09 39.63679 23.39550 23587 ft 399 kts 337°
2026-05-06 19:09 39.66281 23.38278 23942 ft 401 kts 337°
2026-05-06 19:09 39.68900 23.36997 24276 ft 403 kts 337°
2026-05-06 19:10 39.71535 23.35712 24609 ft 405 kts 338°
2026-05-06 19:10 39.74158 23.34432 24933 ft 407 kts 338°
2026-05-06 19:10 39.76837 23.33121 25259 ft 409 kts 338°
2026-05-06 19:10 39.79507 23.31815 25602 ft 410 kts 337°
2026-05-06 19:11 39.82185 23.30505 25950 ft 412 kts 337°
2026-05-06 19:11 39.84864 23.29192 26278 ft 413 kts 337°
2026-05-06 19:11 39.87569 23.27864 26600 ft 415 kts 337°
2026-05-06 19:11 39.90275 23.26533 26905 ft 417 kts 337°
2026-05-06 19:12 39.92997 23.25196 27201 ft 419 kts 337°
2026-05-06 19:12 39.95734 23.23852 27510 ft 421 kts 337°
2026-05-06 19:12 39.98479 23.22505 27795 ft 422 kts 337°
2026-05-06 19:12 40.01187 23.21176 28084 ft 424 kts 337°
2026-05-06 19:13 40.03954 23.19813 28378 ft 425 kts 337°
2026-05-06 19:13 40.06696 23.18460 28651 ft 427 kts 337°
2026-05-06 19:13 40.09474 23.17089 28922 ft 428 kts 337°
2026-05-06 19:13 40.12259 23.15709 29185 ft 429 kts 337°
2026-05-06 19:14 40.15063 23.14320 29423 ft 431 kts 337°
2026-05-06 19:14 40.17874 23.12930 29707 ft 432 kts 337°
2026-05-06 19:14 40.20675 23.11545 30084 ft 431 kts 337°
2026-05-06 19:14 40.23479 23.10158 30412 ft 430 kts 337°
2026-05-06 19:15 40.26518 23.08650 30754 ft 428 kts 337°
2026-05-06 19:15 40.29311 23.07265 31059 ft 428 kts 337°
2026-05-06 19:15 40.32101 23.05881 31386 ft 426 kts 337°
2026-05-06 19:15 40.34881 23.04503 31703 ft 425 kts 337°
2026-05-06 19:16 40.37638 23.03133 32024 ft 424 kts 336°
2026-05-06 19:16 40.40395 23.01758 32348 ft 423 kts 336°
2026-05-06 19:16 40.43080 23.00234 32654 ft 420 kts 329°
2026-05-06 19:16 40.45524 22.98161 32972 ft 417 kts 320°
2026-05-06 19:17 40.47659 22.95596 33280 ft 415 kts 311°
2026-05-06 19:17 40.49466 22.92651 33583 ft 414 kts 307°
2026-05-06 19:17 40.51209 22.89656 33895 ft 413 kts 307°
2026-05-06 19:17 40.52958 22.86669 34180 ft 412 kts 307°
2026-05-06 19:18 40.54706 22.83687 34429 ft 412 kts 307°
2026-05-06 19:18 40.56452 22.80708 34663 ft 411 kts 307°
2026-05-06 19:18 40.58198 22.77719 34884 ft 411 kts 307°
2026-05-06 19:18 40.59936 22.74734 35159 ft 410 kts 307°
2026-05-06 19:19 40.61654 22.71781 35392 ft 409 kts 307°
2026-05-06 19:19 40.63385 22.68805 35592 ft 409 kts 307°
2026-05-06 19:19 40.65115 22.65829 35790 ft 409 kts 307°
2026-05-06 19:19 40.66848 22.62844 35970 ft 409 kts 307°
2026-05-06 19:20 40.68578 22.59858 36034 ft 410 kts 307°
2026-05-06 19:20 40.72036 22.53884 36039 ft 410 kts 307°
2026-05-06 19:21 40.75488 22.47913 36042 ft 410 kts 307°
2026-05-06 19:21 40.78940 22.41928 36042 ft 410 kts 307°
2026-05-06 19:22 40.82394 22.35947 36045 ft 409 kts 307°
2026-05-06 19:22 40.85842 22.29953 36054 ft 410 kts 306°
2026-05-06 19:23 40.89284 22.23944 36054 ft 410 kts 306°
2026-05-06 19:23 40.92717 22.17928 36072 ft 410 kts 306°
2026-05-06 19:24 40.96150 22.11899 36078 ft 410 kts 306°
2026-05-06 19:24 40.99583 22.05884 36081 ft 410 kts 306°
2026-05-06 19:25 41.03022 21.99858 36079 ft 410 kts 306°
2026-05-06 19:25 41.06444 21.93833 36059 ft 410 kts 306°
2026-05-06 19:26 41.09510 21.87476 36058 ft 409 kts 300°
2026-05-06 19:26 41.12351 21.80948 36064 ft 409 kts 300°
2026-05-06 19:27 41.15200 21.74420 36066 ft 409 kts 300°
2026-05-06 19:27 41.18045 21.67891 36061 ft 408 kts 300°
2026-05-06 19:28 41.20881 21.61360 36062 ft 408 kts 300°
2026-05-06 19:28 41.23260 21.55871 36062 ft 408 kts 299°
2026-05-06 19:29 41.26066 21.49382 36080 ft 408 kts 300°
2026-05-06 19:29 41.28888 21.42837 36063 ft 408 kts 299°
2026-05-06 19:30 41.31696 21.36291 36063 ft 408 kts 299°
2026-05-06 19:30 41.34510 21.29735 36061 ft 408 kts 299°
2026-05-06 19:31 41.37321 21.23175 36069 ft 408 kts 299°
2026-05-06 19:31 41.41526 21.13324 36092 ft 408 kts 299°
2026-05-06 19:32 41.44338 21.06724 36087 ft 407 kts 300°
2026-05-06 19:32 41.47105 21.00222 36095 ft 405 kts 299°
2026-05-06 19:33 41.49882 20.93678 36093 ft 405 kts 299°
2026-05-06 19:33 41.52647 20.87146 36097 ft 405 kts 299°
2026-05-06 19:34 41.55412 20.80600 36098 ft 404 kts 299°
2026-05-06 19:34 41.58162 20.74061 36104 ft 403 kts 299°
2026-05-06 19:35 41.60911 20.67530 36105 ft 402 kts 299°
2026-05-06 19:35 41.63616 20.61088 36102 ft 402 kts 299°
2026-05-06 19:36 41.66344 20.54576 36105 ft 401 kts 299°
2026-05-06 19:36 41.69179 20.48134 36105 ft 402 kts 302°
2026-05-06 19:37 41.72209 20.41865 36108 ft 401 kts 302°
2026-05-06 19:37 41.75258 20.35617 36112 ft 400 kts 302°
2026-05-06 19:38 41.78254 20.29347 36118 ft 399 kts 302°
2026-05-06 19:38 41.81215 20.23046 36114 ft 400 kts 301°
2026-05-06 19:39 41.84176 20.16745 36125 ft 399 kts 301°
2026-05-06 19:39 41.87136 20.10452 36125 ft 399 kts 301°
2026-05-06 19:40 41.90087 20.04152 36114 ft 399 kts 301°
2026-05-06 19:40 41.93044 19.97848 36108 ft 398 kts 301°
2026-05-06 19:41 41.95990 19.91557 36106 ft 399 kts 301°
2026-05-06 19:41 41.98937 19.85240 36109 ft 399 kts 301°
2026-05-06 19:42 42.01878 19.78924 36117 ft 399 kts 300°
2026-05-06 19:42 42.04821 19.72589 36111 ft 399 kts 300°
2026-05-06 19:43 42.07755 19.66260 36099 ft 399 kts 300°
2026-05-06 19:43 42.10690 19.59904 36097 ft 400 kts 300°
2026-05-06 19:44 42.13629 19.53534 36100 ft 400 kts 300°
2026-05-06 19:44 42.16559 19.47171 36105 ft 399 kts 300°
2026-05-06 19:45 42.19476 19.40810 36114 ft 400 kts 299°
2026-05-06 19:45 42.22380 19.34405 36113 ft 399 kts 295°
2026-05-06 19:46 42.24415 19.27501 36108 ft 397 kts 288°